Location: Kershaw
(34.5481°N, 80.5823°W)
Time: 09:24:09
(UTC+00:00)

Altair - Pass Details

Date: 06 October 2022
Orbit: 1501 x 1682 km, 47.2° (Epoch: 30 November)

Event Time Altitude Azimuth Distance (km) Brightness Sun altitude
Rises 11:12:58 0° 272° (W) 4,774 - -2.4°
Exits shadow 11:13:49 - 273° (W) 4,522 9.2 -2.3°
Reaches altitude 10° 11:16:17 10° 279° (W) 3,816 8.9 -1.8°
Maximum altitude 11:25:26 43° 348° (NNW) 2,189 8.3 0.1°
Drops below altitude 10° 11:34:54 10° 58° (ENE) 3,932 10.5 2.0°
Sets 11:38:23 0° 65° (ENE) 4,931 11.2 2.8°
